Grand Forks Air Force Base, ND

11:13 PM CDT on September 28, 2016 (GMT -0500)
Grand Forks Air Force Base

Weather History for KRDR - February, 2014

Change the Weather History Date:

Sunday, February 2, 2014

  Actual Average Record
Temperature  
Mean Temperature 6 °F -  
Max Temperature 17 °F 19 °F 46 °F (2000)
Min Temperature -5 °F 1 °F -18 °F (2004)
Degree Days  
Heating Degree Days 59    
Moisture  
Dew Point -3 °F    
Average Humidity 75    
Maximum Humidity 85    
Minimum Humidity 60    
Precipitation  
Precipitation 0.00 in - - ()
Sea Level Pressure  
Sea Level Pressure 30.14 in    
Wind  
Wind Speed 6 mph (WSW)    
Max Wind Speed 13 mph    
Max Gust Speed -    
Visibility 10 miles    
Events Snow    
Averages and records for this station are not official NWS values.
T = Trace of Precipitation, MM = Missing Value Source: NWS Daily Summary

Daily Weather History Graph

Daily Weather History Graph

Search for Another Location

Airport or City:

Trip Planner

Search our weather history database for the weather conditions in past years. The results will help you decide how hot, cold, wet, or windy it might be!

Date:

Astronomy

Feb. 02, 2014 Rise Set
Actual Time 7:55 AM CST 5:31 PM CST
Civil Twilight 7:22 AM CST 6:04 PM CST
Nautical Twilight 6:45 AM CST 6:41 PM CST
Astronomical Twilight 6:09 AM CST 7:18 PM CST
Moon 9:04 AM CST (2/2) 9:37 PM CST (2/2)
Length of Visible Light 10h 42m
Length of Day
9h 35m
Waxing Crescent, 11% of the Moon is Illuminated
Feb 2
Waxing Crescent
Feb 6
First Quarter
Feb 14
Full
Feb 22
Last Quarter
Mar 1
New

Hourly Weather History & Observations

Time (CST) Temp. Windchill Dew Point Humidity Pressure Visibility Wind Dir Wind Speed Gust Speed Precip Events Conditions
12:19 AM -2.2 °F -15.6 °F -7.6 °F 78% 30.15 in 10.0 mi WSW 6.9 mph - N/A Snow Light Snow
12:23 AM -2.2 °F -14.2 °F -7.6 °F 78% 30.15 in 10.0 mi WSW 5.8 mph - N/A   Overcast
12:35 AM -2.2 °F -10.4 °F -7.6 °F 78% 30.15 in 10.0 mi West 3.5 mph - N/A Snow Light Snow
12:44 AM -2.2 °F -12.5 °F -7.6 °F 78% 30.15 in 10.0 mi West 4.6 mph - N/A   Overcast
12:57 AM -2.2 °F -14.2 °F -7.6 °F 78% 30.15 in 10.0 mi WSW 5.8 mph - N/A Snow Light Snow
12:58 AM -1.7 °F -13.5 °F -7.6 °F 76% 30.25 in 10.0 mi WSW 5.8 mph - 0.00 in Snow Light Snow
1:08 AM -2.2 °F -14.2 °F -7.6 °F 78% 30.15 in 8.0 mi WSW 5.8 mph - N/A Snow Light Snow
1:16 AM -0.4 °F -13.4 °F -5.8 °F 78% 30.14 in 10.0 mi WSW 6.9 mph - N/A   Overcast
1:17 AM -0.4 °F -13.4 °F -5.8 °F 78% 30.14 in 10.0 mi WSW 6.9 mph - N/A   Overcast
1:22 AM -0.4 °F -12.0 °F -5.8 °F 78% 30.14 in 10.0 mi WSW 5.8 mph - N/A   Overcast
1:27 AM -0.4 °F -12.0 °F -5.8 °F 78% 30.14 in 10.0 mi WSW 5.8 mph - N/A   Overcast
1:31 AM -0.4 °F -12.0 °F -5.8 °F 78% 30.14 in 10.0 mi WSW 5.8 mph - N/A Snow Light Snow
1:36 AM -0.4 °F -13.4 °F -5.8 °F 78% 30.14 in 10.0 mi WSW 6.9 mph - N/A Snow Light Snow
1:40 AM -0.4 °F -12.0 °F -5.8 °F 78% 30.14 in 10.0 mi WSW 5.8 mph - N/A   Overcast
1:55 AM -2.2 °F -14.2 °F -5.8 °F 85% 30.14 in 10.0 mi WSW 5.8 mph - N/A   Overcast
1:58 AM -1.7 °F -13.5 °F -6.5 °F 80% 30.23 in 10.0 mi WSW 5.8 mph - 0.00 in   Overcast
2:03 AM -2.2 °F -14.2 °F -7.6 °F 78% 30.14 in 10.0 mi WSW 5.8 mph - N/A   Overcast
2:13 AM -2.2 °F -14.2 °F -7.6 °F 78% 30.14 in 10.0 mi WSW 5.8 mph - N/A   Scattered Clouds
2:58 AM -5.4 °F -19.5 °F -10.1 °F 80% 30.24 in 10.0 mi WSW 6.9 mph - 0.00 in   Clear
3:32 AM -0.4 °F -13.4 °F -7.6 °F 72% 30.13 in 10.0 mi WNW 6.9 mph - N/A Snow Light Snow
3:37 AM 1.4 °F -12.5 °F -7.6 °F 66% 30.13 in 10.0 mi WNW 8.1 mph - N/A Snow Light Snow
3:44 AM 1.4 °F -9.9 °F -5.8 °F 72% 30.13 in 10.0 mi WNW 5.8 mph - N/A   Mostly Cloudy
3:58 AM 1.0 °F -10.3 °F -6.5 °F 71% 30.22 in 10.0 mi West 5.8 mph - 0.00 in   Overcast
4:58 AM 1.2 °F -6.4 °F -4.7 °F 76% 30.22 in 10.0 mi WSW 3.5 mph - N/A   Overcast
5:44 AM 1.4 °F -9.9 °F -4.0 °F 78% 30.12 in 10.0 mi SSW 5.8 mph - N/A Snow Light Snow
5:48 AM 1.4 °F -9.9 °F -4.0 °F 78% 30.12 in 10.0 mi SSW 5.8 mph - N/A   Overcast
5:58 AM 1.2 °F -8.5 °F -4.2 °F 78% 30.21 in 10.0 mi SW 4.6 mph - 0.00 in   Overcast
6:33 AM 1.4 °F -9.9 °F -4.0 °F 78% 30.11 in 10.0 mi SW 5.8 mph - N/A   Overcast
6:36 AM 3.2 °F -7.8 °F -4.0 °F 72% 30.11 in 10.0 mi SW 5.8 mph - N/A Snow Light Snow
6:46 AM 3.2 °F -4.2 °F -4.0 °F 72% 30.11 in 10.0 mi SW 3.5 mph - N/A   Overcast
6:48 AM 3.2 °F -4.2 °F -2.2 °F 78% 30.11 in 10.0 mi WSW 3.5 mph - N/A Snow Light Snow
6:57 AM 3.2 °F -6.2 °F -4.0 °F 72% 30.11 in 10.0 mi WSW 4.6 mph - N/A Snow Light Snow
6:58 AM 2.7 °F -6.8 °F -3.3 °F 76% 30.20 in 10.0 mi WSW 4.6 mph - 0.00 in Snow Light Snow
6:59 AM 3.2 °F -4.2 °F -4.0 °F 72% 30.11 in 10.0 mi WSW 3.5 mph - N/A   Overcast
7:58 AM 3.7 °F -7.1 °F -2.6 °F 75% 30.20 in 10.0 mi SW 5.8 mph - 0.00 in   Overcast
8:43 AM 5.0 °F -6.9 °F -2.2 °F 72% 30.10 in 10.0 mi SSW 6.9 mph - N/A   Overcast
8:58 AM 5.5 °F -7.4 °F -1.5 °F 73% 30.18 in 10.0 mi SSW 8.1 mph - N/A   Overcast
9:03 AM 5.0 °F -8.1 °F -0.4 °F 78% 30.09 in 10.0 mi SSW 8.1 mph - N/A   Overcast
9:13 AM 5.0 °F -8.1 °F -0.4 °F 78% 30.09 in 10.0 mi SSW 8.1 mph - N/A   Overcast
9:14 AM 5.0 °F -8.1 °F -0.4 °F 78% 30.09 in 10.0 mi SSW 8.1 mph - N/A Snow Light Snow
9:16 AM 5.0 °F -8.1 °F -0.4 °F 78% 30.09 in 10.0 mi SSW 8.1 mph - N/A   Overcast
9:58 AM 7.2 °F -6.4 °F -0.0 °F 72% 30.18 in 10.0 mi SSW 9.2 mph - 0.00 in   Overcast
10:58 AM 9.3 °F -4.6 °F 1.9 °F 72% 30.16 in 10.0 mi SW 10.4 mph - N/A   Overcast
11:58 AM 13.3 °F 0.3 °F 4.5 °F 68% 30.14 in 10.0 mi SW 10.4 mph - N/A   Scattered Clouds
12:58 PM 14.9 °F 0.9 °F 5.2 °F 65% 30.12 in 10.0 mi WSW 12.7 mph - N/A   Clear
1:58 PM 16.3 °F 4.1 °F 5.5 °F 63% 30.09 in 10.0 mi WSW 10.4 mph - N/A   Clear
2:58 PM 17.1 °F 4.3 °F 5.5 °F 61% 30.09 in 10.0 mi WSW 11.5 mph - N/A   Clear
3:58 PM 16.7 °F 4.5 °F 4.8 °F 60% 30.10 in 10.0 mi SW 10.4 mph - N/A   Clear
4:58 PM 14.4 °F 0.9 °F 4.3 °F 64% 30.11 in 10.0 mi WSW 11.5 mph - N/A   Clear
5:58 PM 10.9 °F -0.8 °F 2.7 °F 69% 30.12 in 10.0 mi WSW 8.1 mph - N/A   Clear
6:58 PM 8.1 °F -4.3 °F 0.9 °F 72% 30.14 in 10.0 mi West 8.1 mph - N/A   Clear
7:58 PM 3.4 °F -8.9 °F -2.2 °F 78% 30.14 in 10.0 mi West 6.9 mph - N/A   Clear
8:58 PM 3.9 °F -8.2 °F -2.2 °F 76% 30.14 in 10.0 mi West 6.9 mph - N/A   Clear
9:58 PM 5.2 °F -7.9 °F -1.1 °F 75% 30.14 in 10.0 mi NW 8.1 mph - N/A   Clear
10:58 PM 5.5 °F -8.4 °F -0.6 °F 76% 30.16 in 10.0 mi WNW 9.2 mph - N/A   Clear
11:58 PM 10.0 °F -3.7 °F 2.8 °F 73% 30.17 in 10.0 mi NW 10.4 mph - N/A   Overcast